GW3560 Weather Reports


Display with metric or nautical units.
time (UTC)temp
F
wind
direction
speed
MPH
gust
MPH
rain 1hr
in
rain 24hr
in
rain mn
in
humidity
%
barometer
mb
20260504081530 60 286 0.0 4.0 0.00 0.13 0.13 85 1013.3
20260504050004 61 265 1.0 7.0 0.00 0.13 0.13 85 1012.9
20260504044512 61 301 2.0 5.0 0.00 0.13 0.13 85 1013.0
20260504043059 61 316 1.0 7.0 0.00 0.13 0.13 85 1013.0
20260504041533 61 296 3.0 7.0 0.00 0.13 0.13 84 1013.0
20260504040017 61 305 3.0 9.0 0.00 0.13 0.13 84 1012.9
20260504034528 61 266 5.0 10.0 0.00 0.13 0.13 84 1013.0
20260504033009 60 279 3.0 11.0 0.00 0.13 0.13 85 1013.1
20260504031519 60 300 4.0 10.0 0.00 0.13 0.13 86 1013.4
20260504030005 60 301 4.0 12.0 0.00 0.13 0.13 86 1013.7
20260504024516 60 284 2.0 11.0 0.00 0.13 0.13 86 1013.9
20260504023051 59 350 2.0 6.0 0.00 0.13 0.13 87 1014.1
20260504021558 59 269 4.0 10.0 0.00 0.13 0.13 87 1014.2
20260504020043 58 286 1.0 8.0 0.00 0.13 0.13 89 1014.7
20260504014559 58 275 4.0 11.0 0.00 0.13 0.13 90 1015.0
20260504013102 57 233 1.0 9.0 0.00 0.13 0.13 90 1015.2
20260504011503 57 273 1.0 3.0 0.00 0.13 0.13 89 1015.4
20260504010051 58 324 2.0 8.0 0.00 0.13 0.13 89 1015.7
20260504004503 58 258 2.0 8.0 0.00 0.13 0.13 89 1015.7
20260504003045 57 307 1.0 6.0 0.00 0.13 0.13 90 1015.7
20260504001523 57 317 2.0 10.0 0.01 0.13 0.13 91 1015.8
20260504000107 57 285 2.0 8.0 0.02 0.13 0.13 91 1015.8
20260503234502 56 308 0.0 3.0 0.04 0.13 0.13 93 1015.8
20260503233036 55 320 1.0 6.0 0.09 0.13 0.13 93 1016.0
20260503231555 54 34 0.0 1.0 0.13 0.13 0.13 93 1016.1
20260503230041 54 34 0.0 1.0 0.11 0.11 0.11 93 1016.0
20260503224558 54 335 0.0 0.0 0.09 0.09 0.09 92 1016.1
20260503223039 55 329 0.0 1.0 0.05 0.05 0.05 90 1016.1
20260503221557 55 322 0.0 3.0 0.00 0.00 0.00 89 1016.2
20260503220031 55 279 1.0 2.0 0.00 0.00 0.00 87 1016.1
20260503214542 55 350 0.0 2.0 0.00 0.00 0.00 87 1016.0
20260503213029 55 298 0.0 1.0 0.00 0.00 0.00 87 1016.0
20260503211534 54 294 0.0 2.0 0.00 0.00 0.00 86 1015.8
20260503210039 54 308 0.0 1.0 0.00 0.00 0.00 86 1015.6
20260503204621 55 312 0.0 1.0 0.00 0.00 0.00 86 1015.4
20260503203052 55 289 0.0 1.0 0.00 0.00 0.00 86 1015.3
20260503201513 55 14 0.0 1.0 0.00 0.00 0.00 86 1015.1
20260503200055 54 319 0.0 0.0 0.00 0.00 0.00 86 1015.0
20260503194509 54 319 0.0 1.0 0.00 0.00 0.00 87 1015.0
20260503193028 54 332 0.0 0.0 0.00 0.00 0.00 86 1014.8
20260503191603 54 332 0.0 1.0 0.00 0.00 0.00 86 1014.8
20260503190031 54 296 0.0 0.0 0.00 0.00 0.00 86 1014.9
20260503184537 54 296 0.0 0.0 0.00 0.00 0.00 86 1014.9
20260503183035 54 296 0.0 0.0 0.00 0.00 0.00 85 1015.0
20260503181549 54 296 0.0 2.0 0.00 0.00 0.00 84 1014.9
20260503180042 55 303 0.0 2.0 0.00 0.00 0.00 84 1014.7
20260503174556 55 315 0.0 1.0 0.00 0.00 0.00 84 1014.7
20260503173041 55 315 0.0 1.0 0.00 0.00 0.00 84 1014.6
20260503171600 55 310 0.0 1.0 0.00 0.00 0.00 83 1014.7